This is the latest recevied weather packets stored in our database for station/object N6ZHV-13. If no packets are shown the sender has not sent any weather packets the latest 10 day(s).
| Time | Temp. | Humidity | Pressure | Rain* | Wind** | Luminosity | Snow |
|---|---|---|---|---|---|---|---|
| 1788681720 | 22.78° C | 49% | 1008.5 hPa | 0 mm | - | - | - |
| 1788681420 | 22.78° C | 49% | 1008.4 hPa | 0 mm | - | - | - |
| 1788681120 | 22.78° C | 51% | 1008.4 hPa | 0 mm | - | - | - |
| 1788680820 | 22.78° C | 50% | 1008.4 hPa | 0 mm | - | - | - |
| 1788680520 | 22.78° C | 50% | 1008.4 hPa | 0 mm | - | - | - |
| 1788680220 | 22.78° C | 52% | 1008.5 hPa | 0 mm | - | - | - |
| 1788679920 | 22.78° C | 50% | 1008.3 hPa | 0 mm | - | - | - |
| 1788679620 | 22.78° C | 50% | 1008.3 hPa | 0 mm | - | - | - |
| 1788679320 | 22.78° C | 54% | 1008 hPa | 0 mm | - | - | - |
| 1788679020 | 23.33° C | 49% | 1008.3 hPa | 0 mm | - | - | - |
| 1788678720 | 23.33° C | 47% | 1008.4 hPa | 0 mm | - | - | - |
| 1788678420 | 23.33° C | 47% | 1008.4 hPa | 0 mm | - | - | - |
| 1788678120 | 23.33° C | 46% | 1008.4 hPa | 0 mm | - | - | - |
| 1788677820 | 23.33° C | 46% | 1008.3 hPa | 0 mm | - | - | - |
| 1788677520 | 23.33° C | 45% | 1008.3 hPa | 0 mm | - | - | - |
| 1788677220 | 23.33° C | 46% | 1008.3 hPa | 0 mm | - | - | - |
| 1788676920 | 22.78° C | 45% | 1008.1 hPa | 0 mm | - | - | - |
| 1788676620 | 22.78° C | 45% | 1008.1 hPa | 0 mm | - | - | - |
| 1788676320 | 22.78° C | 45% | 1008.1 hPa | 0 mm | - | - | - |
| 1788676020 | 22.78° C | 45% | 1008.3 hPa | 0 mm | - | - | - |
| 1788675720 | 23.33° C | 45% | 1008.3 hPa | 0 mm | - | - | - |
| 1788675420 | 23.33° C | 44% | 1008.3 hPa | 0 mm | - | - | - |
| 1788675120 | 23.33° C | 44% | 1008.3 hPa | 0 mm | - | - | - |
| 1788674820 | 23.33° C | 44% | 1008.3 hPa | 0 mm | - | - | - |
| 1788674520 | 23.33° C | 44% | 1008.3 hPa | 0 mm | - | - | - |
* Rain latest hour (hover to see other rain measurements)
** Current wind speed in m/s (hover to see current wind gust speed)